Weather reports worldwide

Advertisment
Pertusato, France (7770): temperature & dewpoint: 11.10.2018 08:00:00 - 17.10.2018 08:00:00 (CEST)Pertusato, France (7770): wind speed & gusts: 11.10.2018 08:00:00 - 17.10.2018 08:00:00 (CEST)Pertusato, France (7770): wind direction: 11.10.2018 08:00:00 - 17.10.2018 08:00:00 (CEST)Pertusato, France (7770): reduced air pressure: 11.10.2018 08:00:00 - 17.10.2018 08:00:00 (CEST)Pertusato, France (7770): visibility: 11.10.2018 08:00:00 - 17.10.2018 08:00:00 (CEST)Pertusato, France (7770): precipitation: 11.10.2018 08:00:00 - 17.10.2018 08:00:00 (CEST)
Date & Time tt [°C] td [°C] ff [km/h] ff [kn] fx [km/h] fx [kn] dd ppp [hPa] vv [km] rr [mm]
17.10.2018 08:00:00 17,8 17,0 29 16 45 25 NE 1013,4 - 0,2
17.10.2018 07:00:00 17,5 16,9 26 14 41 22 NE 1013,3 - 0,0
17.10.2018 06:00:00 17,0 16,4 21 12 36 19 NE 1013,4 - 0,8
17.10.2018 05:00:00 17,6 17,0 24 13 46 25 NE 1013,2 - 3,6
17.10.2018 04:00:00 18,4 17,6 22 12 45 24 NE 1014,1 - 1,2
17.10.2018 03:00:00 18,4 16,9 32 17 52 28 NE 1014,7 - 0,0
17.10.2018 02:00:00 18,6 17,4 27 15 42 23 NE 1015,1 15 0,0
17.10.2018 01:00:00 18,4 17,4 25 13 38 21 NE 1015,1 - 0,0
17.10.2018 00:00:00 18,6 17,6 24 13 37 20 NE 1015,5 - 0,2
16.10.2018 23:00:00 18,6 17,4 19 11 29 16 NE 1016,0 - 0,0
16.10.2018 22:00:00 18,8 17,6 17 9 28 15 NE 1016,4 - 0,0
16.10.2018 21:00:00 18,9 17,9 18 10 28 15 NE 1016,1 - 0,0
16.10.2018 20:00:00 18,7 17,5 16 9 22 12 ENE 1015,8 22 0,0
16.10.2018 19:00:00 18,8 16,9 13 7 19 10 NE 1015,6 - 0,0
16.10.2018 18:00:00 20,1 17,7 13 7 21 11 E 1015,4 - 0,0
16.10.2018 17:00:00 22,1 17,9 13 7 22 12 E 1015,2 - 0,0
16.10.2018 16:00:00 22,4 17,1 7 4 18 10 W 1014,8 - 0,0
16.10.2018 15:00:00 22,3 17,4 8 4 14 7 W 1014,5 - 0,0
16.10.2018 14:00:00 22,6 17,5 6 3 13 7 SW 1014,9 - 0,0
16.10.2018 13:00:00 22,2 16,2 5 3 16 9 SW 1015,1 - 0,0
16.10.2018 12:00:00 22,6 16,2 4 2 18 10 S 1015,2 - 0,0
16.10.2018 11:00:00 20,7 17,9 15 8 25 13 NE 1015,5 - 0,0
16.10.2018 10:00:00 19,2 18,2 14 7 32 17 NE 1015,5 - 0,0
16.10.2018 09:00:00 17,9 17,1 22 12 35 19 NE 1015,3 - 0,0
16.10.2018 08:00:00 16,9 16,3 23 13 34 18 NE 1014,0 - 0,0
16.10.2018 07:00:00 16,7 16,1 21 12 31 17 NE 1014,0 - 0,0
16.10.2018 06:00:00 16,4 15,8 20 11 32 17 NE 1014,6 - 0,8
16.10.2018 05:00:00 16,3 15,5 23 13 36 20 NE 1014,4 - 1,2
16.10.2018 04:00:00 16,6 15,6 24 13 34 18 NE 1014,5 - 0,0
16.10.2018 03:00:00 16,7 15,7 22 12 35 19 NE 1015,1 - 0,6
16.10.2018 02:00:00 17,9 17,3 22 12 32 18 NE 1015,4 - 0,4
16.10.2018 01:00:00 18,1 17,3 18 10 30 16 NE 1015,5 - 0,0
16.10.2018 00:00:00 17,6 16,6 22 12 36 20 NE 1015,8 - 0,4
15.10.2018 23:00:00 18,2 17,4 20 11 41 22 ENE 1015,9 - 4,9
15.10.2018 22:00:00 18,8 17,6 20 11 34 18 ENE 1015,8 - 1,4
15.10.2018 21:00:00 19,7 16,5 20 11 34 18 ENE 1015,4 - 0,0
15.10.2018 20:00:00 19,8 16,4 21 12 34 19 ENE 1015,1 12 0,0
15.10.2018 19:00:00 20,0 16,0 21 12 34 19 ENE 1014,8 - 0,0
15.10.2018 18:00:00 20,4 16,2 21 11 36 19 E 1014,7 - 0,0
15.10.2018 17:00:00 21,2 15,9 22 12 44 24 E 1014,4 12 0,0
15.10.2018 16:00:00 21,4 16,8 28 15 47 26 ENE 1014,0 - 0,0
15.10.2018 15:00:00 21,4 16,8 31 17 48 26 ENE 1013,7 - 0,0
15.10.2018 14:00:00 22,8 16,6 32 18 51 27 NE 1013,9 - 0,0
15.10.2018 13:00:00 23,0 17,0 29 16 48 26 ENE 1014,4 - 0,0
15.10.2018 12:00:00 21,4 16,6 30 16 46 25 ENE 1014,7 - 0,0
15.10.2018 11:00:00 21,2 17,0 28 15 47 25 ENE 1014,8 12 0,0
15.10.2018 10:00:00 20,3 16,9 29 16 45 25 ENE 1014,8 - 0,0
15.10.2018 09:00:00 19,3 16,7 29 16 50 27 ENE 1014,0 - 0,0
15.10.2018 08:00:00 18,8 16,6 27 15 44 24 ENE 1013,6 - 0,0
15.10.2018 07:00:00 18,8 16,8 24 13 42 23 ENE 1013,9 - 0,0
15.10.2018 06:00:00 18,9 16,1 26 14 40 22 NE 1013,8 - 0,0
15.10.2018 05:00:00 19,0 16,2 23 12 42 23 ENE 1014,0 - 0,0
15.10.2018 04:00:00 18,9 15,8 26 14 41 22 ENE 1014,2 - 0,0
15.10.2018 03:00:00 19,0 15,9 24 13 39 21 NE 1014,6 - 0,0
15.10.2018 02:00:00 18,7 15,9 24 13 39 21 NE 1015,0 - 0,0
15.10.2018 01:00:00 18,5 16,5 22 12 41 22 NE 1015,3 - 0,0
15.10.2018 00:00:00 18,9 16,7 24 13 40 22 ENE 1015,4 - 0,0
14.10.2018 23:00:00 19,2 16,6 23 13 40 22 ENE 1015,4 - 0,0
14.10.2018 22:00:00 18,7 16,3 22 12 36 19 ENE 1015,6 - 0,0
14.10.2018 21:00:00 18,8 16,2 22 12 34 18 ENE 1015,8 - 0,0
14.10.2018 20:00:00 18,8 16,4 17 9 36 19 ENE 1015,5 12 0,0
14.10.2018 19:00:00 19,1 16,0 23 12 37 20 ENE 1015,0 - 0,0
14.10.2018 18:00:00 20,5 15,7 23 13 41 22 ENE 1014,7 - 0,0
14.10.2018 17:00:00 21,8 15,2 26 14 40 21 ENE 1015,0 15 0,0
14.10.2018 16:00:00 22,7 14,5 26 14 42 23 ENE 1015,4 - 0,0
14.10.2018 15:00:00 23,5 13,4 26 14 40 22 ENE 1015,7 - 0,0
14.10.2018 14:00:00 23,6 12,6 27 15 42 23 ENE 1016,2 15 0,0
14.10.2018 13:00:00 23,3 15,4 23 12 44 24 ENE 1017,0 - 0,0
14.10.2018 12:00:00 22,5 15,1 29 15 47 26 ENE 1017,5 - 0,0
14.10.2018 11:00:00 20,9 16,3 28 15 44 24 NE 1017,6 15 0,0
14.10.2018 10:00:00 19,0 16,0 29 16 44 24 NE 1017,7 - 0,0
14.10.2018 09:00:00 17,8 16,8 22 12 35 19 NE 1017,5 - 0,0
14.10.2018 08:00:00 17,0 16,4 19 11 32 17 NE 1017,6 15 0,0
14.10.2018 07:00:00 16,9 16,3 20 11 29 16 NE 1017,7 - 0,0
14.10.2018 06:00:00 16,8 16,0 16 9 24 13 NE 1018,0 - 0,2
14.10.2018 05:00:00 16,4 15,4 16 8 23 13 NE 1018,1 - 0,0
14.10.2018 04:00:00 16,9 15,9 16 9 26 14 NE 1018,6 - 0,0
14.10.2018 03:00:00 16,7 15,7 18 10 25 13 NE 1018,8 - 0,0
14.10.2018 02:00:00 16,6 15,8 16 9 24 13 NE 1019,1 - 0,0
14.10.2018 01:00:00 17,1 16,3 16 9 26 14 NE 1019,5 - 0,0
14.10.2018 00:00:00 17,2 16,4 16 9 23 13 NE 1019,9 - 0,0
13.10.2018 23:00:00 17,4 16,6 16 9 23 13 NE 1020,1 - 0,2
13.10.2018 22:00:00 17,2 16,2 16 8 21 12 NE 1020,1 - 0,0
13.10.2018 21:00:00 18,0 17,0 15 8 26 14 NE 1020,1 - 0,0
13.10.2018 20:00:00 18,6 17,4 19 10 29 16 NE 1020,2 12 0,0
13.10.2018 19:00:00 19,0 17,5 20 11 30 16 NE 1020,0 - 0,0
13.10.2018 18:00:00 20,5 17,5 21 12 33 18 ENE 1020,1 - 0,0
13.10.2018 17:00:00 22,3 17,0 22 12 31 17 ENE 1020,3 12 0,0
13.10.2018 16:00:00 23,9 16,4 19 11 29 16 ENE 1020,4 - 0,0
13.10.2018 15:00:00 24,6 14,1 16 9 29 15 ENE 1020,6 - 0,0
13.10.2018 14:00:00 24,4 15,9 17 9 28 15 E 1021,0 18 0,0
13.10.2018 13:00:00 24,5 16,0 16 8 25 13 E 1021,7 - 0,0
13.10.2018 12:00:00 24,3 15,0 14 8 25 13 ENE 1022,2 - 0,0
13.10.2018 11:00:00 23,0 16,3 19 10 26 14 ENE 1022,5 15 0,0
13.10.2018 10:00:00 21,9 15,5 16 9 24 13 NE 1022,6 - 0,0
13.10.2018 09:00:00 19,9 15,7 16 9 22 12 ENE 1022,6 - 0,0
13.10.2018 08:00:00 17,2 14,5 17 9 22 12 NE 1022,4 15 0,0
13.10.2018 07:00:00 16,6 15,0 16 9 19 11 NE 1022,2 - 0,0
13.10.2018 06:00:00 17,1 15,8 14 7 18 10 ENE 1022,1 - 0,0
13.10.2018 05:00:00 17,2 16,1 14 8 18 10 E 1022,1 15 0,0
13.10.2018 04:00:00 17,0 15,9 14 8 19 10 ENE 1022,2 - 0,0
13.10.2018 03:00:00 17,0 15,5 14 7 19 10 ENE 1022,7 - 0,2
13.10.2018 02:00:00 17,6 15,9 16 8 23 12 ENE 1022,9 - 0,0
13.10.2018 01:00:00 17,5 15,5 17 9 23 12 ENE 1023,2 - 0,0
13.10.2018 00:00:00 18,0 16,7 15 8 19 10 ENE 1023,4 - 0,0
12.10.2018 23:00:00 18,1 16,6 14 8 18 10 ENE 1023,9 - 0,0
12.10.2018 22:00:00 18,6 16,6 12 7 21 12 NE 1024,0 - 0,0
12.10.2018 21:00:00 18,8 16,2 15 8 20 11 ENE 1023,8 - 0,0
12.10.2018 20:00:00 18,7 15,6 14 8 18 10 NE 1023,5 15 0,0
12.10.2018 19:00:00 19,2 15,3 16 8 19 10 ENE 1022,9 - 0,0
12.10.2018 18:00:00 21,9 15,3 9 5 21 11 NE 1022,6 - 0,0
12.10.2018 17:00:00 23,4 13,6 14 8 31 17 ENE 1022,7 20 0,0
12.10.2018 16:00:00 23,6 15,1 22 12 35 19 E 1022,9 - 0,0
12.10.2018 15:00:00 24,2 15,7 23 12 36 20 ENE 1023,2 - 0,0
12.10.2018 14:00:00 24,0 16,0 26 14 40 22 ENE 1023,4 14 0,0
12.10.2018 13:00:00 23,4 15,7 26 14 39 21 ENE 1023,5 - 0,0
12.10.2018 12:00:00 24,0 16,5 24 13 37 20 ENE 1023,6 - 0,0
12.10.2018 11:00:00 22,6 15,9 24 13 35 19 NE 1023,4 18 0,0
12.10.2018 10:00:00 22,0 16,5 21 11 35 19 ENE 1023,2 - 0,0
12.10.2018 09:00:00 20,4 16,8 22 12 36 19 ENE 1022,5 - 0,0
12.10.2018 08:00:00 18,5 16,5 22 12 37 20 ENE 1021,7 18 0,0
12.10.2018 07:00:00 18,4 16,4 24 13 39 21 NE 1021,5 - 0,0
12.10.2018 06:00:00 18,3 16,6 24 13 40 22 NE 1021,1 - 0,0
12.10.2018 05:00:00 18,6 17,1 24 13 42 23 NE 1020,4 24 0,0
12.10.2018 04:00:00 18,7 17,0 27 15 44 24 NE 1019,9 - 0,0
12.10.2018 03:00:00 18,5 17,2 27 14 39 21 ENE 1019,6 - 0,0
12.10.2018 02:00:00 18,7 17,5 22 12 34 19 NE 1019,9 - 0,0
12.10.2018 01:00:00 19,1 17,6 22 12 39 21 NE 1019,7 - 0,0
12.10.2018 00:00:00 19,0 17,5 24 13 39 21 ENE 1019,6 - 0,0
11.10.2018 23:00:00 18,8 17,6 23 12 39 21 NE 1019,5 - 0,0
11.10.2018 22:00:00 18,9 17,7 22 12 33 18 ENE 1019,4 - 0,0
11.10.2018 21:00:00 19,1 17,9 21 12 33 18 ENE 1018,5 - 0,0
11.10.2018 20:00:00 19,1 17,6 22 12 39 21 ENE 1018,2 18 0,0
11.10.2018 19:00:00 19,6 17,6 20 11 32 17 ENE 1017,9 - 0,0
11.10.2018 18:00:00 20,6 17,2 22 12 37 20 ENE 1017,5 - 0,0
11.10.2018 17:00:00 21,5 17,9 23 12 41 22 E 1017,1 18 0,0
11.10.2018 16:00:00 22,7 17,6 26 14 39 21 ENE 1016,9 - 0,0
11.10.2018 15:00:00 23,4 17,6 26 14 37 20 ENE 1016,4 - 0,0
11.10.2018 14:00:00 23,2 17,2 25 14 42 23 E 1016,6 23 0,0
11.10.2018 13:00:00 23,2 18,5 26 14 38 21 E 1016,9 - 0,0
11.10.2018 12:00:00 22,9 16,9 21 12 30 16 E 1017,0 - 0,0
11.10.2018 11:00:00 22,2 17,3 20 11 34 18 ENE 1016,7 22 0,0
11.10.2018 10:00:00 20,3 18,4 26 14 40 22 NE 1016,2 - 0,0
11.10.2018 09:00:00 19,8 18,3 23 12 48 26 ENE 1015,8 - 0,0
11.10.2018 08:00:00 19,2 17,7 31 17 44 24 NE 1015,3 - 0,0

tt = temperature
td = dewpoint
ff = wind speed
fx = gusts
dd = wind direction
ppp = reduced air pressure
vv = visibility
rr = precipitation

Next stations